Location: Cz?stochówka
(50.8142°N, 19.0915°E)
Time: 07:04:00
(UTC+00:00)

Cosmos 1328 - Pass Details

Date: 13 January 2026
Orbit: 461 x 472 km, 82.5° (Epoch: 10 February)

Event Time Altitude Azimuth Distance (km) Brightness Sun altitude
Rises 05:18:39 0° 353° (N) 2,522 6.9 -12.5°
Reaches altitude 10° 05:20:47 10° 358° (N) 1,643 6.0 -12.2°
Maximum altitude 05:24:18 54° 77° (ENE) 584 4.3 -11.6°
Drops below altitude 10° 05:27:49 10° 155° (SSE) 1,637 6.9 -11.1°
Sets 05:29:56 0° 160° (SSE) 2,512 7.8 -10.8°
